Regional Weather Roundup
Issued by NWS Midland/Odessa, TX

Skip options and go directly to product.
Home | Oldest Version | Previous Version | Current Version | All | Text Only | Save Text | Print | Product List | Glossary On

Skip product version selection by date and time.   
059
ASUS44 KMAF 200101
RWRMAF
MIDLAND AREA WEATHER ROUNDUP
NATIONAL WEATHER SERVICE MIDLAND TX
800 PM CDT SUN APR 19 2015

...IN SOUTHWEST TEXAS AND SOUTHEAST NEW MEXICO...

CITY           SKY/WX    TMP DP  RH WIND       PRES   REMARKS
ALPINE         PTCLDY    69  30  24 NE9       30.01R
ANDREWS        FAIR      62  36  37 NE12      29.98S
ARTESIA        CLEAR     68  30  24 E7        29.94R
BIG SPRING     CLEAR     69  35  28 N16       29.97R
CARLSBAD       CLEAR     72  28  19 E6        29.91S
DRYDEN           N/A     78  34  20 N14G21    29.84R
FORT STOCKTON  CLEAR     72  30  21 N10       29.91S
GUAD PASS      NOT AVBL
HOBBS          CLEAR     59  34  38 NE13      29.98F
MARFA          NOT AVBL
MIDLAND AIRPK  CLEAR     69  36  29 N13G22    29.95S
MIDLAND INTL   CLEAR     67  37  33 N21G29    29.94S
ODESSA         CLEAR     66  34  30 NE17      29.95S
PECOS          CLEAR     76  30  18 NE10      29.89S
PRESIDIO       FAIR      82  21  10 S5        29.84R
SEMINOLE       CLEAR     62  35  35 NE12      29.99F
SNYDER         CLEAR    N/A N/A N/A N15G21    29.96R
WINK           CLEAR     71  32  23 NE17      29.91R
$$
...OTHER STATIONS IN TEXAS...

CITY           SKY/WX    TMP DP  RH WIND       PRES   REMARKS
ABILENE        CLEAR     67  42  40 N18G30    29.91R
AMARILLO       CLEAR     56  26  31 N13       29.98R
AUSTIN         PTCLDY    77  47  34 NW9       29.76R
BROWNSVILLE    CLOUDY    78  74  87 E8        29.75R
CORPUS CHRISTI MOCLDY    78  74  87 S8        29.75S
DALLAS FTW     PTCLDY    71  46  40 NW16G23   29.77R
DEL RIO        CLEAR     84  36  18 N5        29.77S
EL PASO        MOCLDY    79  12   8 SW10      29.86S
HOUSTON INT    TSTM      67  60  78 SW10G20   29.75R
LUBBOCK        CLEAR     59  35  40 N10       29.98S
SAN ANGELO     CLEAR     72  42  34 N17       29.88R
SAN ANTONIO    PTCLDY    81  45  28 N9        29.78R
WACO           CLEAR     68  53  58 W5        29.78R
WICHITA FALLS  NOT AVBL
$$
...OTHER LOCATIONS IN NEW MEXICO...

CITY           SKY/WX    TMP DP  RH WIND       PRES   REMARKS
ALAMAGORDO     MOCLDY    68  27  21 CALM      29.91S
ALBUQUERQUE    MOCLDY    63  25  23 S12       29.95R
CANNON AFB     NOT AVBL
CLOVIS         CLEAR     57  27  30 E8        29.98F
HOLLOMAN AFB   NOT AVBL
ROSWELL        CLEAR     65  35  33 E9        29.95R
RUIDOSO        CLOUDY    54  27  35 E12       30.06F
SANTA FE       PTCLDY    59  20  22 SW5       29.96S
TRUTH OR CONSE MOCLDY    67  22  18 NE5       29.92S
TUCUMCARI      CLEAR     60  26  27 E14       29.96S
$$

USA.gov is the U.S. government's official web portal to all federal, state and local government web resources and services.